Index of /downloads/20151123

[ICO]NameLast modifiedSizeDescription

[DIR]Parent Directory  -  
[TXT]dewiki-20151123-extraction-complete03-Jan-2016 19:32 0  
[   ]dewiki-20151123-infobox-test.tql.bz203-Jan-2016 19:32 90  
[   ]dewiki-20151123-infobox-test.ttl.bz203-Jan-2016 19:32 90  
[   ]dewiki-20151123-geo-coordinates.ttl.bz203-Jan-2016 19:32 915  
[   ]dewiki-20151123-geo-coordinates.tql.bz203-Jan-2016 19:30 1.1K 
[   ]dewiki-20151123-pnd.ttl.bz203-Jan-2016 19:29 47K 
[   ]dewiki-20151123-template-redirects.obj03-Jan-2016 19:31 57K 
[   ]dewiki-20151123-pnd.tql.bz203-Jan-2016 19:31 91K 
[   ]dewiki-20151123-infobox-property-definitions.ttl.bz203-Jan-2016 19:32 200K 
[   ]dewiki-20151123-infobox-property-definitions.tql.bz203-Jan-2016 19:31 421K 
[   ]dewiki-20151123-interlanguage-links.ttl.bz213-Jan-2016 17:20 621K 
[   ]dewiki-20151123-interlanguage-links.tql.bz213-Jan-2016 17:20 1.0M 
[   ]dewiki-20151123-specific-mappingbased-properties.ttl.bz203-Jan-2016 19:32 1.9M 
[   ]dewiki-20151123-category-labels.ttl.bz203-Jan-2016 19:29 2.5M 
[   ]dewiki-20151123-homepages.ttl.bz203-Jan-2016 19:30 3.0M 
[   ]dewiki-20151123-specific-mappingbased-properties.tql.bz203-Jan-2016 19:31 3.8M 
[   ]dewiki-20151123-category-labels.tql.bz203-Jan-2016 19:29 4.2M 
[   ]dewiki-20151123-homepages.tql.bz203-Jan-2016 19:30 4.9M 
[   ]dewiki-20151123-skos-categories.ttl.bz203-Jan-2016 19:30 6.7M 
[   ]dewiki-20151123-disambiguations-unredirected.ttl.bz203-Jan-2016 19:30 8.3M 
[   ]dewiki-20151123-skos-categories.tql.bz203-Jan-2016 19:28 11M 
[   ]dewiki-20151123-instance-types.ttl.bz203-Jan-2016 19:32 11M 
[   ]dewiki-20151123-disambiguations-unredirected.tql.bz203-Jan-2016 19:29 13M 
[   ]dewiki-20151123-geo-coordinates-mappingbased.ttl.bz203-Jan-2016 19:29 14M 
[   ]dewiki-20151123-redirects.ttl.bz203-Jan-2016 19:28 18M 
[   ]dewiki-20151123-geo-coordinates-mappingbased.tql.bz203-Jan-2016 19:30 23M 
[   ]dewiki-20151123-instance-types.tql.bz203-Jan-2016 19:31 25M 
[   ]dewiki-20151123-out-degree.ttl.bz203-Jan-2016 19:30 27M 
[   ]dewiki-20151123-redirects.tql.bz203-Jan-2016 19:29 28M 
[   ]dewiki-20151123-page-length.ttl.bz203-Jan-2016 19:32 30M 
[   ]dewiki-20151123-persondata-unredirected.ttl.bz203-Jan-2016 19:32 35M 
[   ]dewiki-20151123-mappingbased-objects-uncleaned-unredirected.ttl.bz203-Jan-2016 19:32 36M 
[   ]dewiki-20151123-page-ids.ttl.bz203-Jan-2016 19:32 37M 
[   ]dewiki-20151123-instance-types-transitive.ttl.bz203-Jan-2016 19:32 37M 
[   ]dewiki-20151123-article-templates.ttl.bz203-Jan-2016 19:29 41M 
[   ]dewiki-20151123-labels.ttl.bz203-Jan-2016 19:29 41M 
[   ]dewiki-20151123-revision-ids.ttl.bz203-Jan-2016 19:32 42M 
[   ]dewiki-20151123-images.ttl.bz203-Jan-2016 19:29 43M 
[   ]dewiki-20151123-out-degree.tql.bz203-Jan-2016 19:29 51M 
[   ]dewiki-20151123-interlanguage-links-chapters.ttl.gz13-Jan-2016 17:20 53M 
[   ]dewiki-20151123-interlanguage-links-chapters.nt.gz13-Jan-2016 17:20 53M 
[   ]dewiki-20151123-page-length.tql.bz203-Jan-2016 19:29 54M 
[   ]dewiki-20151123-external-links.ttl.bz203-Jan-2016 19:32 55M 
[   ]dewiki-20151123-revision-uris.ttl.bz203-Jan-2016 19:32 55M 
[   ]dewiki-20151123-persondata-unredirected.tql.bz203-Jan-2016 19:32 58M 
[   ]dewiki-20151123-mappingbased-literals.ttl.bz203-Jan-2016 19:29 59M 
[   ]dewiki-20151123-images.tql.bz203-Jan-2016 19:29 60M 
[   ]dewiki-20151123-article-categories.ttl.bz203-Jan-2016 19:32 64M 
[   ]dewiki-20151123-mappingbased-objects-uncleaned-unredirected.tql.bz203-Jan-2016 19:32 65M 
[   ]dewiki-20151123-labels.tql.bz203-Jan-2016 19:31 65M 
[   ]dewiki-20151123-page-ids.tql.bz203-Jan-2016 19:32 65M 
[   ]dewiki-20151123-instance-types-transitive.tql.bz203-Jan-2016 19:29 67M 
[   ]dewiki-20151123-revision-ids.tql.bz203-Jan-2016 19:30 68M 
[   ]dewiki-20151123-wikipedia-links.ttl.bz203-Jan-2016 19:28 73M 
[   ]dewiki-20151123-revision-uris.tql.bz203-Jan-2016 19:29 74M 
[   ]dewiki-20151123-interlanguage-links-chapters.tql.gz13-Jan-2016 17:20 76M 
[   ]dewiki-20151123-external-links.tql.bz203-Jan-2016 19:32 76M 
[   ]dewiki-20151123-interlanguage-links-chapters.nq.gz13-Jan-2016 17:20 76M 
[   ]dewiki-20151123-article-templates.tql.bz203-Jan-2016 19:29 83M 
[   ]dewiki-20151123-mappingbased-literals.tql.bz203-Jan-2016 19:29 102M 
[   ]dewiki-20151123-short-abstracts.ttl.bz203-Jan-2016 19:32 112M 
[   ]dewiki-20151123-article-categories.tql.bz203-Jan-2016 19:28 112M 
[   ]dewiki-20151123-wikipedia-links.tql.bz203-Jan-2016 19:29 119M 
[   ]dewiki-20151123-short-abstracts.tql.bz203-Jan-2016 19:31 124M 
[   ]dewiki-20151123-long-abstracts.ttl.bz203-Jan-2016 19:29 191M 
[   ]dewiki-20151123-infobox-properties-unredirected.ttl.bz203-Jan-2016 19:32 203M 
[   ]dewiki-20151123-long-abstracts.tql.bz203-Jan-2016 19:29 204M 
[   ]dewiki-20151123-infobox-properties-unredirected.tql.bz203-Jan-2016 19:32 295M 
[   ]dewiki-20151123-page-links-unredirected.ttl.bz203-Jan-2016 19:32 516M 
[   ]dewiki-20151123-page-links-unredirected.tql.bz203-Jan-2016 19:29 778M 
[   ]dewiki-20151123-pages-articles.xml.bz203-Jan-2016 19:31 3.7G 

Apache Server at dbmedia.org Port 80